Regional Weather Roundup
Issued by NWS

Home | Current Version | Previous Version | Graphics & Text | Print | Product List | Glossary On
Versions: 1 2 3 4 5 6 7 8 9 10 11 12 13 14 15 16 17 18 19 20 21 22 23 24 25 26 27 28
000
ASUS45 KCYS 232110
RWRWY

WYOMING REGIONAL WEATHER ROUNDUP
NATIONAL WEATHER SERVICE CHEYENNE WY
300 PM MDT FRI JUN 23 2017

NOTE:  "FAIR" INDICATES FEW OR NO CLOUDS BELOW 12,000 FEET
WITH NO SIGNIFICANT WEATHER AND/OR OBSTRUCTIONS TO VISIBILITY.

WYZ001-232200-
YELLOWSTONE NATIONAL PARK

CITY           SKY/WX    TMP DP  RH WIND       PRES   REMARKS
LK YELLOWSTONE   N/A     58  33  39 E5        30.34F
W YELLOWSTONE  NOT AVBL

$$
WYZ002>013-054>058-071-098>099-232200-
NORTHERN WYOMING

CITY           SKY/WX    TMP DP  RH WIND       PRES   REMARKS
JACKSON        SUNNY     68  27  21 W12       30.25S
CODY           FAIR      65  28  24 VRB3      30.27F
GREYBULL       FAIR      72  23  16 VRB7      30.20F
WORLAND        FAIR      69  26  20 MISG      30.22F
SHERIDAN       PTSUNNY   67  35  30 NW12G18   30.24F
BUFFALO        CLOUDY    61  33  35 N13G23    30.28S
GILLETTE       FAIR      68  32  26 NW14G30   30.22F
NEWCASTLE      FAIR      64  23  20 NW21G30   30.22S

$$
WYZ014>020-022>026-101>103-232200-
CENTRAL WYOMING

CITY           SKY/WX    TMP DP  RH WIND       PRES   REMARKS
BIG PINEY      FAIR      70  35  27 VRB6      30.27F
PINEDALE       FAIR      68  32  26 NW9G21    30.29S
DUBOIS         FAIR      63  32  31 SE15      30.27S
LANDER         FAIR      66  36  32 VRB3      30.23F
RIVERTON       FAIR      66  30  26 E7        30.24F
CASPER         FAIR      66  31  27 VRB6      30.23F
DOUGLAS        FAIR      67  29  24 N9G23     30.24F

$$
WYZ021-027>030-104>119-232200-
SOUTHERN WYOMING

CITY           SKY/WX    TMP DP  RH WIND       PRES   REMARKS
EVANSTON       FAIR      74  32  21 W13G22    30.29S
KEMMERER         N/A     70  25  18 W17G24    30.30S
FORT BRIDGER   FAIR      76  30  18 NW15      30.30S
ROCK SPRINGS   FAIR      73  28  18 NW8G18    30.24F
DIXON          FAIR      76  25  15 W9G22     30.25F
RAWLINS        FAIR      71  27  19 CALM      30.25F
SARATOGA       FAIR      72  32  23 N13G20    30.26F
LARAMIE        FAIR      70  31  23 N15G21    30.26S
CHEYENNE       CLOUDY    62  40  44 SE9       30.26F
TORRINGTON     FAIR      71  29  21 N8G21     30.18F
PINE BLUFFS    MOCLDY    64  41  42 N6        30.25F

$$




USA.gov is the U.S. government's official web portal to all federal, state and local government web resources and services.